Change the Weather History Date:

Monday, September 9, 2013

  Actual Average (KRMG) Record (KRMG)
Temperature  
Mean Temperature 76 °F 74 °F  
Max Temperature 87 °F 86 °F 98 °F (2002)
Min Temperature 64 °F 63 °F 48 °F (1998)
Degree Days  
Heating Degree Days 0 0  
Month to date heating degree days 0  
Since 1 July heating degree days 0  
Cooling Degree Days 10 9  
Month to date cooling degree days 93  
Year to date cooling degree days 1459  
Growing Degree Days 26 (Base 50)    
Moisture  
Dew Point 67 °F    
Average Humidity 81    
Maximum Humidity 94    
Minimum Humidity 48    
Precipitation  
Precipitation 0.00 in 0.11 in 0.13 in (2008)
Month to date precipitation 0.83  
Year to date precipitation 36.25  
Sea Level Pressure  
Sea Level Pressure 30.08 in    
Wind  
Wind Speed 1 mph (SSE)    
Max Wind Speed 13 mph    
Max Gust Speed 22 mph    
Visibility 6 miles    
Events Rain , Thunderstorm    
T = Trace of Precipitation, MM = Missing Value Source: NWS Daily Summary

Daily Weather History Graph

Daily Weather History Graph

Search for Another Location

Airport or City:

Trip Planner

Search our weather history database for the weather conditions in past years. The results will help you decide how hot, cold, wet, or windy it might be!

Date:

Astronomy

Sep. 09, 2013 Rise Set
Actual Time 6:21 AM CDT 6:57 PM CDT
Civil Twilight 5:56 AM CDT 7:23 PM CDT
Nautical Twilight 5:26 AM CDT 7:52 PM CDT
Astronomical Twilight 4:56 AM CDT 8:23 PM CDT
Moon 10:29 AM CDT (9/9) 9:27 PM CDT (9/9)
Length of Visible Light 13h 26m
Length of Day
12h 35m
Waxing Crescent, 19% of the Moon is Illuminated
Sep 9
Waxing Crescent
Sep 12
First Quarter
Sep 19
Full
Sep 26
Last Quarter
Oct 4
New

Hourly Weather History & Observations

Time (CDT) Temp. Heat Index Dew Point Humidity Pressure Visibility Wind Dir Wind Speed Gust Speed Precip Events Conditions
12:15 AM 68.0 °F - 64.4 °F 88% 30.03 in 4.0 mi Calm Calm - N/A   Clear
12:35 AM 68.0 °F - 64.4 °F 88% 30.03 in 4.0 mi Calm Calm - N/A   Clear
12:55 AM 68.0 °F - 64.4 °F 88% 30.04 in 4.0 mi Calm Calm - N/A   Clear
1:15 AM 68.0 °F - 64.4 °F 88% 30.04 in 4.0 mi Calm Calm - N/A   Clear
1:35 AM 68.0 °F - 64.4 °F 88% 30.03 in 4.0 mi Calm Calm - N/A   Clear
1:55 AM 66.2 °F - 64.4 °F 94% 30.03 in 4.0 mi Calm Calm - N/A   Clear
2:15 AM 66.2 °F - 62.6 °F 88% 30.03 in 4.0 mi Calm Calm - N/A   Clear
2:35 AM 66.2 °F - 64.4 °F 94% 30.03 in 4.0 mi Calm Calm - N/A   Clear
2:55 AM 68.0 °F - 64.4 °F 88% 30.04 in 4.0 mi Calm Calm - N/A   Clear
3:15 AM 66.2 °F - 64.4 °F 94% 30.04 in 4.0 mi Calm Calm - N/A   Clear
3:35 AM 66.2 °F - 64.4 °F 94% 30.04 in 4.0 mi Calm Calm - N/A   Clear
3:55 AM 68.0 °F - 64.4 °F 88% 30.04 in 4.0 mi Calm Calm - N/A   Clear
4:15 AM 66.2 °F - 64.4 °F 94% 30.05 in 4.0 mi Calm Calm - N/A   Clear
4:35 AM 66.2 °F - 62.6 °F 88% 30.05 in 4.0 mi Calm Calm - N/A   Clear
4:55 AM 66.2 °F - 62.6 °F 88% 30.05 in 4.0 mi Calm Calm - N/A   Clear
5:15 AM 64.4 °F - 62.6 °F 94% 30.05 in 4.0 mi Calm Calm - N/A   Clear
5:35 AM 66.2 °F - 62.6 °F 88% 30.06 in 5.0 mi Calm Calm - N/A   Clear
5:55 AM 64.4 °F - 62.6 °F 94% 30.06 in 4.0 mi Calm Calm - N/A   Clear
6:15 AM 66.2 °F - 62.6 °F 88% 30.06 in 4.0 mi Calm Calm - N/A   Clear
6:35 AM 66.2 °F - 62.6 °F 88% 30.06 in 4.0 mi Calm Calm - N/A   Clear
6:55 AM 66.2 °F - 62.6 °F 88% 30.07 in 3.0 mi Calm Calm - N/A   Clear
7:15 AM 68.0 °F - 64.4 °F 88% 30.07 in 3.0 mi Calm Calm - N/A   Clear
7:35 AM 68.0 °F - 64.4 °F 88% 30.07 in 4.0 mi Calm Calm - N/A   Clear
7:55 AM 69.8 °F - 64.4 °F 83% 30.08 in 5.0 mi Calm Calm - N/A   Clear
8:15 AM 69.8 °F - 64.4 °F 83% 30.08 in 5.0 mi Calm Calm - N/A   Haze
8:35 AM 71.6 °F - 66.2 °F 83% 30.09 in 7.0 mi Calm Calm - N/A   Clear
8:55 AM 75.2 °F - 68.0 °F 78% 30.09 in 7.0 mi Calm Calm - N/A   Clear
9:15 AM 77.0 °F - 66.2 °F 69% 30.10 in 10.0 mi Calm Calm - N/A   Clear
9:35 AM 78.8 °F - 66.2 °F 65% 30.10 in 10.0 mi Calm Calm - N/A   Clear
9:55 AM 80.6 °F 83.2 °F 68.0 °F 65% 30.10 in 10.0 mi Calm Calm - N/A   Clear
10:15 AM 82.4 °F 85.4 °F 68.0 °F 62% 30.10 in 10.0 mi Calm Calm - N/A   Clear
10:35 AM 82.4 °F 85.4 °F 68.0 °F 62% 30.11 in 10.0 mi Calm Calm - N/A   Scattered Clouds
10:55 AM 82.4 °F 85.4 °F 68.0 °F 62% 30.10 in 10.0 mi Calm Calm - N/A   Mostly Cloudy
11:15 AM 84.2 °F 86.6 °F 66.2 °F 55% 30.10 in 10.0 mi Calm Calm - N/A   Mostly Cloudy
11:35 AM 86.0 °F 88.2 °F 66.2 °F 51% 30.10 in 10.0 mi SSE 3.5 mph - N/A   Mostly Cloudy
11:55 AM 84.2 °F 87.3 °F 68.0 °F 58% 30.10 in 10.0 mi South 3.5 mph - N/A   Overcast
12:15 PM 86.0 °F 88.2 °F 66.2 °F 51% 30.09 in 10.0 mi Calm Calm - N/A   Overcast
12:35 PM 86.0 °F 88.2 °F 66.2 °F 51% 30.09 in 10.0 mi South 3.5 mph - N/A   Mostly Cloudy
12:55 PM 86.0 °F 88.2 °F 66.2 °F 51% 30.09 in 10.0 mi East 3.5 mph - N/A   Scattered Clouds
1:15 PM 86.0 °F 87.3 °F 64.4 °F 48% 30.08 in 10.0 mi South 3.5 mph - N/A   Mostly Cloudy
1:35 PM 87.8 °F 90.4 °F 66.2 °F 49% 30.08 in 10.0 mi SE 3.5 mph - N/A   Mostly Cloudy
1:55 PM 86.0 °F 88.2 °F 66.2 °F 51% 30.08 in 10.0 mi WNW 9.2 mph - N/A Thunderstorm Thunderstorm
2:15 PM 80.6 °F 82.7 °F 66.2 °F 61% 30.10 in 10.0 mi West 12.7 mph 18.4 mph N/A Thunderstorm Thunderstorm
2:35 PM 73.4 °F - 68.0 °F 83% 30.09 in 5.0 mi NNW 11.5 mph 21.9 mph N/A Rain , Thunderstorm Light Thunderstorms and Rain
2:55 PM 73.4 °F - 68.0 °F 83% 30.08 in 7.0 mi Calm Calm - N/A Rain Light Rain
3:15 PM 75.2 °F - 68.0 °F 78% 30.08 in 10.0 mi Calm Calm - N/A   Overcast
3:35 PM 73.4 °F - 69.8 °F 88% 30.08 in 7.0 mi Calm Calm - N/A   Overcast
3:55 PM 75.2 °F - 69.8 °F 83% 30.07 in 7.0 mi Calm Calm - N/A   Overcast
4:15 PM 75.2 °F - 69.8 °F 83% 30.06 in 10.0 mi Calm Calm - N/A   Overcast
4:35 PM 77.0 °F - 69.8 °F 78% 30.06 in 10.0 mi Calm Calm - N/A   Overcast
4:55 PM 77.0 °F - 71.6 °F 83% 30.06 in 10.0 mi Calm Calm - N/A   Overcast
5:15 PM 78.8 °F - 71.6 °F 78% 30.06 in 10.0 mi Calm Calm - N/A   Overcast
5:35 PM 78.8 °F - 71.6 °F 78% 30.05 in 10.0 mi NNE 3.5 mph - N/A   Overcast
5:55 PM 78.8 °F - 71.6 °F 78% 30.06 in 10.0 mi Calm Calm - N/A   Overcast
6:15 PM 77.0 °F - 71.6 °F 83% 30.06 in 10.0 mi NNE 3.5 mph - N/A   Overcast
6:35 PM 77.0 °F - 71.6 °F 83% 30.06 in 7.0 mi Calm Calm - N/A   Overcast
6:55 PM 77.0 °F - 69.8 °F 78% 30.06 in 7.0 mi Calm Calm - N/A   Mostly Cloudy
7:15 PM 73.4 °F - 69.8 °F 88% 30.07 in 5.0 mi Calm Calm - N/A   Mostly Cloudy
7:35 PM 73.4 °F - 69.8 °F 88% 30.08 in 7.0 mi Calm Calm - N/A   Scattered Clouds
7:55 PM 73.4 °F - 69.8 °F 88% 30.08 in 4.0 mi Calm Calm - N/A   Clear
8:15 PM 73.4 °F - 69.8 °F 88% 30.08 in 4.0 mi Calm Calm - N/A   Clear
8:35 PM 71.6 °F - 69.8 °F 94% 30.09 in 4.0 mi Calm Calm - N/A   Clear
8:55 PM 71.6 °F - 69.8 °F 94% 30.09 in 4.0 mi Calm Calm - N/A   Clear
9:15 PM 71.6 °F - 68.0 °F 88% 30.10 in 4.0 mi Calm Calm - N/A   Clear
9:35 PM 71.6 °F - 68.0 °F 88% 30.11 in 2.5 mi Calm Calm - N/A   Clear
9:55 PM 69.8 °F - 68.0 °F 94% 30.11 in 3.0 mi Calm Calm - N/A   Clear
10:15 PM 69.8 °F - 68.0 °F 94% 30.11 in 4.0 mi Calm Calm - N/A   Clear
10:35 PM 69.8 °F - 68.0 °F 94% 30.11 in 3.0 mi Calm Calm - N/A   Clear
10:55 PM 69.8 °F - 68.0 °F 94% 30.12 in 3.0 mi Calm Calm - N/A   Clear
11:15 PM 69.8 °F - 68.0 °F 94% 30.13 in 3.0 mi Calm Calm - N/A   Scattered Clouds
11:35 PM 69.8 °F - 68.0 °F 94% 30.13 in 3.0 mi Calm Calm - N/A   Overcast
11:55 PM 69.8 °F - 68.0 °F 94% 30.13 in 3.0 mi Calm Calm - N/A   Scattered Clouds